DMSP 5D-2 F11 DEB

Satellite information

Favourite Embed

Satellite Type and Status

DEBRISIN ORBIT

Key statistics

Satellite DMSP 5D-2 F11 DEB at a glance.

Uptime

12435

Days in orbit

Revolutions

≈ 14.4

Per day

Orbit

SSO

Sun Synchronous Orbit

Inclination

98.9

Latest

Satellite identification and parameters

Extended collection of information and parameters for DMSP 5D-2 F11 DEB.

Object identification

Identified? True

Debris? True

Object name: DMSP 5D-2 F11 DEB

International designator: 1991-082BG

Object number (NORAD): 28343

Object ID (CCSDS): 28343

Country: UNITED STATES OF AMERICA (US)

Current information (Y/N): Y

RCS size: SMALL

Orbital parameters

Period: 100.297 minutes

Inclination: 98.8921 deg

SMA: 7150.767 km

Apoapsis: 816.414 km

Periapsis: 728.849 km

RAAN: 67.3293 deg

Eccentricy: 0.00612281

Argument of periapsis: 30.3158 deg

Mean anomaly: 330.1545 deg

Mean motion: 14.35733579 rev/day

Mean motion (dot): 0.0000865 rev/day2

B* drag term: 0.0029423579 1/REarth

Two-line elements (TLE)

Creation date: Dec. 10, 2025, 7:58 p.m.

Reference frame: TEME

Reference center: EARTH

Epoch: Dec. 10, 2025, noon UTC

TLE line 0: 0 DMSP 5D-2 F11 DEB

TLE line 1: 1 28343U 91082BG 25344.50040094 .00008650 00000-0 29424-2 0 9992

TLE line 2: 2 28343 98.8921 67.3293 0061228 30.3158 330.1545 14.35733579108612

Live tracking on map

Real-time ground track for satellite DMSP 5D-2 F11 DEB.

In-orbit conjunctions

A list of the most updated potential collisions computed for object DMSP 5D-2 F11 DEB.

Target Orbit TCA Probability of collision Miss distance Type
COSMOS 304 LEO 2025-07-27 23:45:36 0.0004541686 718.0 (m) PAYLOAD
CZ-2D R/B SSO 2024-11-15 16:13:38 0.0001073243 288.0 (m) ROCKET BODY
SPOT 3 SSO 2024-06-21 03:27:17 0.0005350055 561.0 (m) PAYLOAD

Associated space launch

Military meteorological satellite

DMSP 5D-2 F11 DEB was lifted into orbit during the mission ‘Atlas E | DMSP-5D2 F11’, on board a Atlas E space rocket.

The launch took place on Nov. 28, 1991, 1:23 p.m. from Space Launch Complex 3W.

For more information about the launch, click the button.

Launch to space Atlas E | DMSP-5D2 F11
Atlas E | DMSP-5D2 F11

Agency: N/A

Status: Launch Successful

Launch date: Nov. 28, 1991, 1:23 p.m. UTC

Rocket: Atlas E

Launch pad: Space Launch Complex 3W

Location: Vandenberg SFB, CA, USA

...

Latest news about this satellite

There are no fresh news available about this satellite. Check back as we update our databases every day.


Newsletter sign-up

Weekly statistics, charts and insights to help you stay on top of the space industry.